This demonstration page uses our WeatherBlox Daily Observations layout. Learn more.

Left ArrowRight Arrow

41.12389, -100.76542

Hourly Observations for August 15, 2022

Temp ( °F °C ) Dew Point ( °F °C ) Humidity (%) Winds ( mph kmh ) Pressure ( in mb ) Visibility ( mi km ) Precip ( " mm )
12:53 am 00:53 Partly Cloudy 73 22.8 66 18.9 79 79 E 16 26 29.88 1012 10 16 0.01 0.13
1:53 am 01:53 Partly Cloudy 72 22.2 65 18.3 79 79 NW 6 9 29.92 1013 10 16 0.00 0.00
2:19 am 02:19 Mostly Cloudy 72 22.2 65 18.3 79 79 N 8 13 29.89 1012 10 16 0.00 0.00
2:53 am 02:53 Mostly Cloudy 73 22.8 65 18.3 76 76 NNE 9 15 29.91 1013 10 16 0.00 0.00
3:53 am 03:53 Mostly Cloudy 71 21.7 66 18.9 84 84 NE 9 15 29.90 1013 10 16 0.00 0.00
4:53 am 04:53 Clear 70 21.1 65 18.3 84 84 NE 12 19 29.88 1012 10 16 0.00 0.00
5:53 am 05:53 Partly Cloudy 69 20.6 64 17.8 84 84 E 8 13 29.88 1012 10 16 0.00 0.00
6:53 am 06:53 Mostly Sunny 69 20.6 63 17.2 81 81 ENE 10 17 29.89 1012 10 16 0.00 0.00
7:53 am 07:53 Sunny 67 19.4 64 17.8 90 90 ESE 13 20 29.89 1012 10 16 0.01 0.25
8:36 am 08:36 Mostly Cloudy 68 20 64 17.8 87 87 ESE 3 6 29.91 1013 10 16 0.00 0.00
8:53 am 08:53 Cloudy 69 20.6 64 17.8 84 84 Calm 29.93 1014 10 16 0.00 0.00
9:37 am 09:37 Cloudy 69 20.6 64 17.8 84 84 ESE 6 9 29.91 1013 10 16 0.00 0.00
9:53 am 09:53 Cloudy 69 20.6 63 17.2 81 81 SSE 3 6 29.95 1014 10 16 0.00 0.00
10:07 am 10:07 Cloudy 69 20.6 64 17.8 84 84 S 5 7 29.91 1013 10 16 0.00 0.00
10:18 am 10:18 Cloudy 69 20.6 63 17.2 81 81 S 3 6 29.91 1013 10 16 0.00 0.00
10:32 am 10:32 Cloudy 70 21.1 63 17.2 78 78 Calm 29.91 1013 10 16 0.00 0.00
10:53 am 10:53 Cloudy 70 21.1 63 17.2 78 78 Calm 29.95 1014 10 16 0.00 0.00
11:53 am 11:53 Cloudy 72 22.2 64 17.8 76 76 SW 3 6 29.95 1014 10 16 0.00 0.00
12:51 pm 12:51 Partly Cloudy 75 24 64 18 69 69 Calm 29.88 1012 10 16 0.00 0.00
12:53 pm 12:53 Partly Cloudy 76 24.4 65 18.3 69 69 Calm 29.94 1014 10 16 0.00 0.00
1:53 pm 13:53 Sunny 81 27.2 65 18.3 58 58 Calm 29.92 1013 10 16 0.00 0.00
2:53 pm 14:53 Sunny 86 30 65 18.3 50 50 SSW 6 9 29.90 1012 10 16 0.00 0.00
3:53 pm 15:53 Mostly Sunny 88 31.1 63 17.2 43 43 VRB 6 9 29.88 1012 10 16 0.00 0.00
4:53 pm 16:53 Sunny 87 30.6 63 17.2 45 45 NE 9 15 29.88 1012 10 16 0.00 0.00
5:53 pm 17:53 Mostly Sunny 88 31.1 63 17.2 43 43 VRB 3 6 29.87 1011 10 16 0.00 0.00
6:53 pm 18:53 Mostly Cloudy with Nearby Thunderstorms 83 28.3 65 18.3 55 55 E 17 28 29.87 1011 10 16 0.00 0.00
7:08 pm 19:08 Partly Cloudy with Thunderstorms 81 27.2 65 18.3 58 58 E 17 28 29.76 1008 10 16 0.00 0.00
7:25 pm 19:25 Mostly Cloudy with Strong Thunderstorms 75 23.9 67 19.4 76 76 NNE 10 17 29.83 1010 2 3 0.06 1.52
7:28 pm 19:28 Mostly Cloudy with Strong Thunderstorms 73 22.8 67 19.4 81 81 NNE 10 17 29.84 1011 1 2 0.15 3.81
7:30 pm 19:30 Mostly Cloudy with Heavy Rain 72 22.2 68 20 87 87 ENE 12 19 29.85 1011 1 1 0.22 5.59
7:40 pm 19:40 Cloudy with Light Rain 73 22.8 68 20 84 84 E 12 19 29.83 1010 3 5 0.56 14.22
7:53 pm 19:53 Mostly Cloudy 74 23.3 68 20 82 82 ENE 14 22 29.92 1013 10 16 0.56 14.22
8:24 pm 20:24 Mostly Cloudy with Nearby Thunderstorms 72 22.2 66 18.9 82 82 ENE 13 20 29.88 1012 10 16 0.01 0.13
8:37 pm 20:37 Cloudy with Thunderstorms 71 21.7 66 18.9 84 84 NE 16 26 29.90 1012 10 16 0.01 0.13
8:53 pm 20:53 Cloudy with Strong Thunderstorms 70 21.1 66 18.9 87 87 NE 17 28 29.97 1015 5 8 0.02 0.51
9:27 pm 21:27 Cloudy with Nearby Thunderstorms 69 20.6 65 18.3 87 87 E 14 22 29.91 1013 10 16 0.16 4.06
9:53 pm 21:53 Partly Cloudy with Light Rain 68 20 65 18.3 90 90 ESE 12 19 29.97 1015 10 16 0.18 4.57
10:49 pm 22:49 Partly Cloudy 68 20 64 18 88 88 ENE 8 13 29.96 1015 10 16 0.01 0.13
10:53 pm 22:53 Mostly Cloudy 68 20 65 18.3 90 90 ENE 7 11 30.01 1016 10 16 0.01 0.13
11:28 pm 23:28 Cloudy 69 20.6 65 18.3 87 87 ESE 8 13 29.94 1014 10 16 0.00 0.00
11:37 pm 23:37 Cloudy 69 20.6 65 18.3 87 87 E 9 15 29.94 1014 10 16 0.00 0.00
11:53 pm 23:53 Cloudy 68 20 65 18.3 90 90 E 9 15 29.98 1015 10 16 0.00 0.00

Powered by AerisWeather